Location: Bern�tre
(50.1974°N, 2.0915°E)
Time: 04:05:41
(UTC+00:00)

Cosmos 2285 Rocket - Pass Details

Date: 18 September 2020
Orbit: 970 x 1000 km, 74.0° (Epoch: 29 October)

Event Time Altitude Azimuth Distance (km) Brightness Sun altitude
Rises 19:32:54 0° 173° (S) 3,652 6.7 -15.6°
Reaches altitude 10° 19:35:36 10° 165° (SSE) 2,711 6.0 -16.0°
Maximum altitude 19:41:15 36° 101° (E) 1,491 4.5 -16.9°
Drops below altitude 10° 19:46:56 10° 37° (NE) 2,744 6.2 -17.7°
Sets 19:49:41 0° 29° (NNE) 3,701 7.0 -18.1°
